DW3637 Weather Reports


Display with metric or nautical units.
time (UTC)temp
F
wind
direction
speed
MPH
gust
MPH
rain 1hr
in
rain 24hr
in
rain mn
in
humidity
%
barometer
mb
20260905200017 76 0.0 2.0 0.00 0.00 0.00 61 1008.9
20260905195025 76 0.0 1.0 0.00 0.00 0.00 63 1008.9
20260905194019 76 0.0 4.0 0.00 0.00 0.00 63 1008.9
20260905193017 78 90 1.0 8.0 0.00 0.00 0.00 61 1008.9
20260905192021 81 45 2.0 6.0 0.00 0.00 0.00 54 1008.9
20260905191044 82 0.0 1.0 0.00 0.00 0.00 53 1008.8
20260905190017 82 0.0 1.0 0.00 0.00 0.00 52 1008.8
20260905185019 82 0.0 4.0 0.00 0.00 0.00 50 1008.7
20260905184017 82 0.0 1.0 0.00 0.00 0.00 52 1008.8
20260905183023 81 0.0 2.0 0.00 0.00 0.00 51 1008.8
20260905182100 80 0.0 2.0 0.00 0.00 0.00 52 1008.9
20260905181017 80 0.0 3.0 0.00 0.00 0.00 54 1008.9
20260905180018 81 338 1.0 6.0 0.00 0.00 0.00 50 1009.0
20260905175017 81 0.0 4.0 0.00 0.00 0.00 53 1009.1
20260905174018 80 0.0 1.0 0.00 0.00 0.00 56 1009.1
20260905173017 79 90 1.0 6.0 0.00 0.00 0.00 56 1009.1
20260905172017 79 0.0 3.0 0.00 0.00 0.00 56 1009.1
20260905171017 78 0.0 3.0 0.00 0.00 0.00 56 1009.1
20260905170017 79 90 1.0 8.0 0.00 0.00 0.00 54 1009.2
20260905165018 79 0.0 1.0 0.00 0.00 0.00 57 1009.2
20260905164017 78 0.0 4.0 0.00 0.00 0.00 59 1009.1
20260905163018 78 0.0 3.0 0.00 0.00 0.00 59 1009.2
20260905162017 78 0.0 2.0 0.00 0.00 0.00 59 1009.2
20260905161017 77 0.0 3.0 0.00 0.00 0.00 62 1009.2
20260905160038 76 45 3.0 9.0 0.00 0.00 0.00 60 1009.3
20260905155018 75 0.0 1.0 0.00 0.00 0.00 65 1009.4
20260905154017 74 68 1.0 5.0 0.00 0.00 0.00 63 1009.4
20260905153017 75 0.0 9.0 0.00 0.00 0.00 62 1009.5
20260905152017 75 0.0 3.0 0.00 0.00 0.00 65 1009.6
20260905151017 74 0.0 5.0 0.00 0.00 0.00 65 1009.6
20260905150017 74 68 1.0 11.0 0.00 0.00 0.00 67 1009.6
20260905145017 73 0.0 3.0 0.00 0.00 0.00 68 1009.5
20260905144038 72 0.0 4.0 0.00 0.00 0.00 71 1009.5
20260905143017 71 0.0 5.0 0.00 0.00 0.00 73 1009.7
20260905142017 71 45 1.0 6.0 0.00 0.00 0.00 71 1009.8
20260905141037 71 0.0 6.0 0.00 0.00 0.00 73 1009.8
20260905140018 71 68 1.0 5.0 0.00 0.00 0.00 73 1009.8
20260905135037 70 0.0 1.0 0.00 0.00 0.00 74 1009.9
20260905134017 70 0.0 5.0 0.00 0.00 0.00 75 1009.8
20260905133016 69 0.0 4.0 0.00 0.00 0.00 77 1009.9
20260905132016 69 0.0 2.0 0.00 0.00 0.00 80 1009.8
20260905131017 68 0.0 3.0 0.00 0.00 0.00 82 1009.8
20260905130037 68 0.0 1.0 0.00 0.00 0.00 84 1009.8
20260905125018 67 0.0 0.0 0.00 0.00 0.00 86 1010.0
20260905124028 66 0.0 1.0 0.00 0.00 0.00 88 1009.9
20260905123018 65 0.0 1.0 0.00 0.00 0.00 88 1009.8
20260905122046 65 0.0 1.0 0.00 0.00 0.00 90 1009.8
20260905121020 64 0.0 0.0 0.00 0.00 0.00 93 1009.7
20260905120018 62 0.0 0.0 0.00 0.00 0.00 96 1009.6
20260905115018 61 0.0 0.0 0.00 0.00 0.00 97 1009.6
20260905114027 61 0.0 0.0 0.00 0.00 0.00 97 1009.4
20260905113056 60 0.0 0.0 0.00 0.00 0.00 97 1009.4
20260905112022 59 0.0 0.0 0.00 0.00 0.00 96 1009.3
20260905111017 59 0.0 0.0 0.00 0.00 0.00 96 1009.3
20260905110018 59 0.0 0.0 0.00 0.00 0.00 96 1009.1
20260905105040 58 0.0 0.0 0.00 0.00 0.00 96 1008.9
20260905104040 59 0.0 0.0 0.00 0.00 0.00 96 1008.9
20260905103016 59 0.0 0.0 0.00 0.00 0.00 96 1008.9
20260905102019 59 0.0 0.0 0.00 0.00 0.00 95 1008.9
20260905101016 59 0.0 0.0 0.00 0.00 0.00 95 1008.8
20260905100020 59 0.0 0.0 0.00 0.00 0.00 95 1008.8
20260905095036 59 0.0 0.0 0.00 0.00 0.00 96 1008.7
20260905094016 59 0.0 0.0 0.00 0.00 0.00 95 1008.7
20260905093016 59 0.0 0.0 0.00 0.00 0.00 95 1008.6
20260905092017 59 0.0 0.0 0.00 0.00 0.00 95 1008.7
20260905091036 59 0.0 0.0 0.00 0.00 0.00 95 1008.6
20260905090017 60 0.0 0.0 0.00 0.00 0.00 94 1008.7
20260905085017 60 0.0 0.0 0.00 0.00 0.00 94 1008.6
20260905084017 60 0.0 0.0 0.00 0.00 0.00 94 1008.4
20260905083016 60 0.0 0.0 0.00 0.00 0.00 94 1008.4
20260905082016 60 0.0 0.0 0.00 0.00 0.00 93 1008.4
20260905081036 61 0.0 0.0 0.00 0.00 0.00 94 1008.5
20260905080036 61 0.0 0.0 0.00 0.00 0.00 93 1008.6
20260905075016 61 0.0 0.0 0.00 0.00 0.00 93 1008.6
20260905074019 61 0.0 0.0 0.00 0.00 0.00 93 1008.6
20260905073016 61 0.0 0.0 0.00 0.00 0.00 92 1008.6
20260905072016 62 0.0 0.0 0.00 0.00 0.00 92 1008.7
20260905071057 62 0.0 0.0 0.00 0.00 0.00 92 1008.6
20260905070017 62 0.0 0.0 0.00 0.00 0.00 91 1008.7
20260905065016 62 0.0 0.0 0.00 0.00 0.00 91 1008.7
20260905064036 62 0.0 0.0 0.00 0.00 0.00 91 1008.7
20260905063016 63 0.0 0.0 0.00 0.00 0.00 90 1008.7
20260905062017 63 0.0 0.0 0.00 0.00 0.00 89 1008.8
20260905061016 63 0.0 0.0 0.00 0.00 0.00 89 1008.9
20260905060016 64 0.0 0.0 0.00 0.00 0.00 89 1009.0
20260905055016 64 0.0 0.0 0.00 0.00 0.00 89 1009.1
20260905054016 64 0.0 0.0 0.00 0.00 0.00 88 1009.2
20260905053016 64 0.0 0.0 0.00 0.00 0.00 88 1009.1
20260905052016 65 0.0 0.0 0.00 0.00 0.00 87 1009.3
20260905051016 65 0.0 0.0 0.00 0.00 0.00 86 1009.4
20260905050016 65 0.0 1.0 0.00 0.00 0.00 85 1009.5
20260905045016 66 0.0 0.0 0.00 0.00 0.00 84 1009.5
20260905044016 66 0.0 0.0 0.00 0.00 0.00 83 1009.5
20260905043016 67 0.0 0.0 0.00 0.00 0.00 82 1009.4
20260905042016 68 0.0 0.0 0.00 0.00 0.00 80 1009.3
20260905041019 68 0.0 0.0 0.00 0.00 0.00 79 1009.1
20260905040017 68 0.0 0.0 0.00 0.00 0.00 78 1009.0
20260905035025 68 0.0 0.0 0.00 0.00 0.00 78 1009.0
20260905034016 69 0.0 0.0 0.00 0.00 0.00 78 1009.2
20260905033037 69 0.0 1.0 0.00 0.00 0.00 78 1009.1
20260905032017 69 0.0 0.0 0.00 0.00 0.00 78 1009.1
20260905031036 69 0.0 1.0 0.00 0.00 0.00 77 1009.1
20260905030036 70 0.0 0.0 0.00 0.00 0.00 77 1009.2
20260905025017 70 0.0 0.0 0.00 0.00 0.00 76 1009.2
20260905024036 71 0.0 3.0 0.00 0.00 0.00 75 1009.2
20260905023017 71 0.0 2.0 0.00 0.00 0.00 74 1009.1
20260905022036 71 0.0 1.0 0.00 0.00 0.00 72 1008.8
20260905021016 72 0.0 0.0 0.00 0.00 0.00 72 1009.0
20260905020025 72 0.0 0.0 0.00 0.00 0.00 72 1009.1
20260905015020 72 0.0 0.0 0.00 0.00 0.00 71 1009.2
20260905014018 73 0.0 0.0 0.00 0.00 0.00 71 1009.3
20260905013017 73 0.0 1.0 0.00 0.00 0.00 70 1009.4
20260905012021 73 0.0 1.0 0.00 0.00 0.00 71 1009.4
20260905011021 74 0.0 1.0 0.00 0.00 0.00 70 1009.4
20260905010017 74 0.0 1.0 0.00 0.00 0.00 70 1009.3
20260905005017 74 0.0 0.0 0.00 0.00 0.00 71 1009.3
20260905004042 74 0.0 0.0 0.00 0.00 0.00 71 1009.3
20260905003018 74 0.0 1.0 0.00 0.00 0.00 71 1009.2
20260905002018 74 0.0 1.0 0.00 0.00 0.00 70 1009.0
20260905001017 74 0.0 1.0 0.00 0.00 0.00 69 1008.9
20260905000016 74 0.0 0.0 0.00 0.00 0.00 69 1008.8
20260904235015 74 0.0 0.0 0.00 0.00 0.00 68 1008.9
20260904234016 75 0.0 0.0 0.00 0.00 0.00 67 1008.7
20260904233017 76 0.0 0.0 0.00 0.00 0.00 65 1008.7
20260904232035 77 0.0 0.0 0.00 0.00 0.00 63 1008.8
20260904231018 78 0.0 0.0 0.00 0.00 0.00 61 1008.8
20260904230020 79 0.0 3.0 0.00 0.00 0.00 59 1008.7
20260904225031 81 0.0 1.0 0.00 0.00 0.00 56 1008.8
20260904224021 82 0.0 2.0 0.00 0.00 0.00 54 1008.7
20260904223050 83 0.0 1.0 0.00 0.00 0.00 52 1008.6
20260904222022 82 0.0 2.0 0.00 0.00 0.00 52 1008.5
20260904221021 82 0.0 1.0 0.00 0.00 0.00 52 1008.4
20260904220020 82 0.0 1.0 0.00 0.00 0.00 52 1008.4
20260904215023 84 0.0 0.0 0.00 0.00 0.00 50 1008.4
20260904214018 83 0.0 4.0 0.00 0.00 0.00 50 1008.3
20260904213018 82 0.0 4.0 0.00 0.00 0.00 50 1008.4
20260904212023 83 0.0 2.0 0.00 0.00 0.00 50 1008.6
20260904211018 84 0.0 1.0 0.00 0.00 0.00 50 1008.6
20260904210019 84 315 1.0 4.0 0.00 0.00 0.00 48 1008.6
20260904205018 85 0.0 1.0 0.00 0.00 0.00 49 1008.6
20260904204020 85 0.0 3.0 0.00 0.00 0.00 48 1008.5
20260904203030 85 0.0 3.0 0.00 0.00 0.00 48 1008.5
20260904202033 84 0.0 5.0 0.00 0.00 0.00 48 1008.7
20260904201020 84 0.0 1.0 0.00 0.00 0.00 48 1008.7